Location: ?astrovice
(49.6513°N, 14.9287°E)
Time: 13:19:46
(UTC+00:00)

Cosmos 2333 Rocket - Pass Details

Date: 09 April 2020
Orbit: 841 x 861 km, 70.8° (Epoch: 02 June)

Event Time Altitude Azimuth Distance (km) Brightness Sun altitude
Rises 23:35:42 0° 331° (NNW) 3,408 6.0 -31.8°
Reaches altitude 10° 23:38:09 10° 332° (NNW) 2,470 5.2 -31.8°
Enters shadow 23:42:32 55° 339° (NNW) 1,010 2.7 -31.6°
